Weather History for Sioux Falls, SD

Change the Weather History Date:

Thursday, May 16, 2013

  Actual Average Record
Temperature  
Mean Temperature 66 °F 58 °F  
Max Temperature 82 °F 70 °F 92 °F (1934)
Min Temperature 49 °F 46 °F 23 °F (2014)
Degree Days  
Heating Degree Days 0 8  
Month to date heating degree days 208 160  
Since 1 July heating degree days 7749 7567  
Cooling Degree Days 1 1  
Month to date cooling degree days 14 12  
Year to date cooling degree days 18 17  
Growing Degree Days 15 (Base 50)    
Moisture  
Dew Point 51 °F    
Average Humidity 69    
Maximum Humidity 94    
Minimum Humidity 16    
Precipitation  
Precipitation 0.43 in 0.11 in 1.85 in (1991)
Month to date precipitation 2.11 1.69  
Year to date precipitation 7.47 7.62  
Snow  
Snow 0.00 in 0.00 in T in (1916)
Month to date snowfall 1.5 0.4  
Since 1 July snowfall 43.3 44.9  
Snow Depth 0.00 in    
Sea Level Pressure  
Sea Level Pressure 29.85 in    
Wind  
Wind Speed 7 mph (ESE)    
Max Wind Speed 21 mph    
Max Gust Speed 31 mph    
Visibility 9 miles    
Events Rain , Thunderstorm    
T = Trace of Precipitation, MM = Missing Value Source: NWS Daily Summary

Daily Weather History Graph

Daily Weather History Graph

Search for Another Location

Airport:

Trip Planner

Search our weather history database for the weather conditions in past years. The results will help you decide how hot, cold, wet, or windy it might be!

Date:

Astronomy

May. 16, 2013 Rise Set
Actual Time 6:00 AM CDT 8:46 PM CDT
Civil Twilight 5:27 AM CDT 9:19 PM CDT
Nautical Twilight 4:45 AM CDT 10:02 PM CDT
Astronomical Twilight 3:57 AM CDT 10:50 PM CDT
Moon 11:38 AM CDT (5/16) 1:05 AM CDT (5/16)
Length of Visible Light 15h 52m
Length of Day
14h 45m
Waxing Crescent, 36% of the Moon is Illuminated
May 16
Waxing Crescent
May 17
First Quarter
May 24
Full
May 31
Last Quarter
Jun 8
New

Hourly Weather History & Observations

Time (CDT) Temp. Dew Point Humidity Pressure Visibility Wind Dir Wind Speed Gust Speed Precip Events Conditions
12:56 AM 55.9 °F 45.0 °F 67% 29.90 in 10.0 mi Calm Calm - N/A   Clear
1:56 AM 54.0 °F 45.0 °F 72% 29.90 in 10.0 mi Calm Calm - N/A   Partly Cloudy
2:56 AM 54.0 °F 46.0 °F 75% 29.88 in 10.0 mi Calm Calm - N/A   Partly Cloudy
3:56 AM 51.1 °F 46.0 °F 83% 29.88 in 10.0 mi Calm Calm - N/A   Clear
4:56 AM 48.9 °F 44.1 °F 83% 29.88 in 10.0 mi Calm Calm - N/A   Clear
5:56 AM 50.0 °F 45.0 °F 83% 29.89 in 10.0 mi Calm Calm - N/A   Clear
6:56 AM 52.0 °F 48.0 °F 86% 29.89 in 10.0 mi North 4.6 mph - N/A   Clear
7:56 AM 59.0 °F 48.9 °F 69% 29.89 in 10.0 mi Calm Calm - N/A   Clear
8:56 AM 66.9 °F 50.0 °F 54% 29.88 in 10.0 mi ESE 4.6 mph - N/A   Clear
9:56 AM 72.0 °F 50.0 °F 46% 29.87 in 10.0 mi SSE 10.4 mph - N/A   Clear
10:56 AM 77.0 °F 46.9 °F 34% 29.86 in 10.0 mi SE 13.8 mph - N/A   Clear
11:56 AM 80.1 °F 44.1 °F 28% 29.83 in 10.0 mi SE 15.0 mph - N/A   Clear
12:56 PM 80.1 °F 42.1 °F 26% 29.82 in 10.0 mi SE 12.7 mph 24.2 mph N/A   Clear
1:56 PM 80.1 °F 42.1 °F 26% 29.81 in 10.0 mi SE 11.5 mph 21.9 mph N/A   Clear
2:56 PM 77.0 °F 43.0 °F 30% 29.83 in 10.0 mi SSE 9.2 mph - N/A   Partly Cloudy
3:56 PM 75.9 °F 45.0 °F 33% 29.82 in 10.0 mi SW 4.6 mph - 0.00 in Rain Light Rain
4:56 PM 64.9 °F 55.0 °F 70% 29.84 in 8.0 mi SW 8.1 mph - 0.02 in Rain Light Rain
5:56 PM 63.0 °F 57.0 °F 81% 29.82 in 9.0 mi West 3.5 mph - 0.07 in Rain Light Rain
6:56 PM 62.1 °F 59.0 °F 90% 29.81 in 10.0 mi North 5.8 mph - 0.01 in Rain Light Rain
7:56 PM 62.1 °F 57.9 °F 86% 29.80 in 8.0 mi ENE 10.4 mph - 0.00 in Rain Rain
8:56 PM 61.0 °F 57.9 °F 90% 29.81 in 10.0 mi ENE 9.2 mph - 0.02 in   Overcast
9:56 PM 61.0 °F 57.9 °F 90% 29.83 in 10.0 mi ENE 9.2 mph - 0.00 in Rain Light Rain
10:09 PM 60.8 °F 57.2 °F 88% 29.84 in 10.0 mi ENE 9.2 mph - 0.00 in Rain , Thunderstorm Light Thunderstorms and Rain
10:47 PM 60.8 °F 57.2 °F 88% 29.84 in 10.0 mi East 8.1 mph - 0.05 in Rain Light Rain
10:56 PM 61.0 °F 57.9 °F 90% 29.83 in 10.0 mi Calm Calm - 0.05 in Rain Light Rain
11:10 PM 60.8 °F 57.2 °F 88% 29.85 in 5.0 mi East 6.9 mph - 0.03 in Rain , Thunderstorm Thunderstorms and Rain
11:32 PM 60.8 °F 57.2 °F 88% 29.87 in 2.5 mi North 6.9 mph - 0.14 in Rain , Thunderstorm Heavy Thunderstorms and Rain
11:46 PM 60.8 °F 59.0 °F 94% 29.86 in 5.0 mi East 8.1 mph - 0.17 in Rain Light Rain
11:56 PM 61.0 °F 59.0 °F 93% 29.83 in 5.0 mi East 11.5 mph - N/A Rain Rain